Regional Weather Roundup
Issued by NWS

Home | Current Version | Previous Version | Text Only | Print | Product List | Glossary Off
Versions: 1 2 3 4 5 6 7 8 9 10 11 12 13 14 15 16 17 18 19 20 21 22 23 24 25 26 27 28 29 30 31 32 33 34 35 36 37 38 39 40 41 42 43 44 45 46 47 48 49 50

000
ASUS43 KLMK 051402
RWRKY
KENTUCKY REGIONAL WEATHER ROUNDUP
NATIONAL WEATHER SERVICE LOUISVILLE KY
1000 AM EDT SUN JUL 05 2015

NOTE "FAIR" INDICATES FEW OR NO CLOUDS BELOW 12,000 FEET
WITH NO SIGNIFICANT WEATHER AND/OR OBSTRUCTIONS TO VISIBILITY.

KYZ001>023-026-027-061>063-070>075-051500-
WESTERN AND SOUTH CENTRAL KENTUCKY

CITY           SKY/WX    TMP DP  RH WIND       PRES   REMARKS
PADUCAH        MOSUNNY   71  70  96 CALM      30.07S FOG
HENDERSON      PTSUNNY   73  68  83 CALM      30.06R
OWENSBORO      PTSUNNY   75  71  87 CALM      30.07R FOG
HOPKINSVILLE   PTSUNNY   73  70  88 SW8       30.08S
BOWLING GREEN  CLOUDY    71  66  84 SW7       30.08R
GLASGOW        NOT AVBL
$$

KYZ024-025-028>034-038-045-046-053-051500-
NORTH CENTRAL KENTUCKY

CITY           SKY/WX    TMP DP  RH WIND       PRES   REMARKS
LOUISVILLE/SDF CLOUDY    73  67  81 NE5       30.07S
LOUISVILLE/LOU CLOUDY    73  67  81 E3        30.08S HAZE
FORT KNOX      CLOUDY    70  67  90 NE6       30.07R FOG
$$

KYZ035>037-039>044-047>052-055>060-089>105-051500-
NORTHEAST KENTUCKY

CITY           SKY/WX    TMP DP  RH WIND       PRES   REMARKS
LEXINGTON      CLOUDY    71  62  73 E5        30.09F
COVINGTON      CLOUDY    72  59  63 E7        30.10S
FRANKFORT      CLOUDY    73  61  65 E9        30.08S
$$

KYZ054-064>069-076>088-106>120-051500-
SOUTHEAST KENTUCKY

CITY           SKY/WX    TMP DP  RH WIND       PRES   REMARKS
JACKSON        LGT RAIN  69  67  93 CALM      30.12R FOG
LONDON         RAIN      69  64  84 CALM      30.10S
SOMERSET       NOT AVBL
MIDDLESBORO    NOT AVBL
MONTICELLO     PTSUNNY   71  70  97 CALM      30.11S
$$




USA.gov is the U.S. government's official web portal to all federal, state and local government web resources and services.